Find Starlink 32723

NORAD ID: 62449 Int'l Des: 2024-251 Owner: SPXS Country: US Constellation: starlink operational
LEOCIRCULAR

リアルタイム位置

3D地球を読み込み中...

Starlink 32723について

説明を読み込み中...

次回通過

Passes for default location (London). Set your location on the main map for personalized predictions.

高度履歴

Loading altitude history...

軌道要素

1 62449U 24251T 26132.07055463 .00010824 00000-0 37706-3 0 9994
2 62449 53.1610 40.8090 0001219 83.1439 276.9701 15.30199567 77490
Epoch: May 12, 2026 • Age: 14 hours

現在のステータス

高度 486.9 km
速度 7.62 km/s
衛星直下点 -34.90°S, 150.89°E
打ち上げ日 Dec 29, 2024
運用期間 1.3 years
タイプ internet

技術仕様

分類 Payload
質量 730.00 kg
乾燥質量 700.00 kg
総質量 730.00 kg
長さ 0.30 m
直径 4.10 m
スパン 29.00 m
形状 Box + pan
製造者 SPXS
バスタイプ Starlink V2M
フェーズステータス In Orbit
所有者/国 SPXS/US

Most Searched